P/2000 Y3 ( Scotti ) 2012

Japanese version
Home page
Updated on September 23, 2009

---------------------------------------------------------------------

* Profile

* Orbital Elements

The following orbital elements are taken from MPC 65937:

Epoch 2012 Feb. 3.0 TT = JDT 2455960.5
T 2012 Jan. 20.7834 TT                                  MPC
q   3.917896             (2000.0)            P               Q
n   0.0909426      Peri.   92.6043      +0.0563905      -0.9984007
a   4.897311       Node   354.1585      +0.8996463      +0.0525544
e   0.199990       Incl.    2.2590      +0.4329627      +0.0208330
P  10.8
From 226 observations 2000 Nov. 29-2002 May 14, mean residual 0".6.

* Magnitudes Graph

        m1 = 3.0 + 5 log d + 20.0 log r(t - 100)

---------------------------------------------------------------------

The orbital elements are published at the MPC Ephemerides and Orbital Elements.
The magnitudes graphs are made with Comet for Windows.

---------------------------------------------------------------------

Copyright(C) Seiichi Yoshida (comet@aerith.net). All rights reserved.